• In Czech Republic
  • List of Countries
  • For 7 days
  • Water Temperature
  • Satellite Maps
  • Weather Map
  • Weather Widgets
  • user-avatar
    Login

    Hourly Weather Quebec

    Today, 12 December, Tuesday

    Time Temperature Precipitation Wind Pressure Humidity
    00:00 -30°C° 0 mm 1 mps 692 mmHg 99%
    01:00 -31°C° 0 mm 1 mps 692 mmHg 99%
    02:00 -31°C° 0 mm 1 mps 692 mmHg 99%
    03:00 -34°C° 0 mm 2 mps 692 mmHg 98%
    04:00 -34°C° 0 mm 2 mps 692 mmHg 98%
    05:00 -34°C° 0 mm 2 mps 692 mmHg 98%
    06:00 -34°C° 0 mm 2 mps 692 mmHg 98%
    07:00 -34°C° 0 mm 2 mps 692 mmHg 97%
    08:00 -32°C° 0 mm 2 mps 692 mmHg 97%
    09:00 -30°C° 0 mm 2 mps 693 mmHg 96%
    10:00 -29°C° 0 mm 2 mps 693 mmHg 95%
    11:00 -28°C° 0 mm 2 mps 693 mmHg 94%
    12:00 -26°C° 0 mm 2 mps 692 mmHg 93%
    13:00 -25°C° 0 mm 2 mps 692 mmHg 93%
    14:00 -26°C° 0 mm 2 mps 692 mmHg 94%
    15:00 -27°C° 0 mm 2 mps 692 mmHg 94%
    16:00 -28°C° 0 mm 2 mps 691 mmHg 95%
    17:00 -30°C° 0 mm 3 mps 691 mmHg 95%
    18:00 -30°C° 0 mm 3 mps 691 mmHg 95%
    19:00 -29°C° 0 mm 3 mps 691 mmHg 94%
    20:00 -29°C° 0 mm 3 mps 690 mmHg 94%
    21:00 -29°C° 0 mm 3 mps 690 mmHg 94%
    22:00 -27°C° 0 mm 3 mps 689 mmHg 94%
    23:00 -26°C° 0.1 mm 3 mps 689 mmHg 94%

    Tomorrow, 13 December, Wednesday

    Time Temperature Precipitation Wind Pressure Humidity
    00:00 -27°C° 0.1 mm 4 mps 688 mmHg 93%
    01:00 -26°C° 0.1 mm 4 mps 688 mmHg 93%
    02:00 -25°C° 0.2 mm 4 mps 687 mmHg 93%
    03:00 -25°C° 0.2 mm 5 mps 687 mmHg 93%
    04:00 -24°C° 0.2 mm 5 mps 686 mmHg 93%
    05:00 -22°C° 0.4 mm 5 mps 686 mmHg 93%
    06:00 -23°C° 0.4 mm 6 mps 685 mmHg 92%
    07:00 -22°C° 0.4 mm 6 mps 684 mmHg 92%
    08:00 -22°C° 0.3 mm 6 mps 683 mmHg 92%
    09:00 -21°C° 0.3 mm 6 mps 682 mmHg 91%
    10:00 -21°C° 0.3 mm 7 mps 682 mmHg 91%
    11:00 -21°C° 0.3 mm 7 mps 680 mmHg 91%
    12:00 -20°C° 0.3 mm 7 mps 679 mmHg 91%
    13:00 -20°C° 0.3 mm 7 mps 678 mmHg 91%
    14:00 -21°C° 0.3 mm 7 mps 677 mmHg 91%
    15:00 -21°C° 0.3 mm 7 mps 676 mmHg 90%
    16:00 -21°C° 0.3 mm 7 mps 676 mmHg 90%
    17:00 -21°C° 0.4 mm 7 mps 675 mmHg 90%
    18:00 -22°C° 0.4 mm 8 mps 674 mmHg 90%
    19:00 -22°C° 0.4 mm 8 mps 673 mmHg 91%
    20:00 -22°C° 0.4 mm 8 mps 672 mmHg 91%
    21:00 -21°C° 0.4 mm 8 mps 671 mmHg 90%
    22:00 -21°C° 0.4 mm 8 mps 669 mmHg 90%
    23:00 -21°C° 0.4 mm 8 mps 668 mmHg 90%

    Day after tomorrow, 14 December, Thursday

    Time Temperature Precipitation Wind Pressure Humidity
    00:00 -19°C° 0.4 mm 8 mps 667 mmHg 91%
    01:00 -19°C° 0.4 mm 8 mps 666 mmHg 91%
    02:00 -20°C° 0.5 mm 9 mps 666 mmHg 91%
    03:00 -19°C° 0.5 mm 9 mps 665 mmHg 91%
    04:00 -19°C° 0.5 mm 9 mps 665 mmHg 91%
    05:00 -17°C° 0.6 mm 8 mps 665 mmHg 91%
    06:00 -17°C° 0.6 mm 8 mps 665 mmHg 92%
    07:00 -17°C° 0.6 mm 8 mps 665 mmHg 92%
    08:00 -17°C° 0.6 mm 8 mps 666 mmHg 92%
    09:00 -17°C° 0.6 mm 8 mps 666 mmHg 92%
    10:00 -17°C° 0.6 mm 8 mps 667 mmHg 92%
    11:00 -17°C° 0.4 mm 8 mps 667 mmHg 92%
    12:00 -17°C° 0.4 mm 8 mps 667 mmHg 92%
    13:00 -17°C° 0.4 mm 9 mps 668 mmHg 92%
    14:00 -17°C° 0.5 mm 9 mps 668 mmHg 91%
    15:00 -17°C° 0.5 mm 9 mps 669 mmHg 91%
    16:00 -19°C° 0.5 mm 9 mps 669 mmHg 91%
    17:00 -19°C° 0.4 mm 9 mps 670 mmHg 90%
    18:00 -20°C° 0.4 mm 9 mps 670 mmHg 90%
    19:00 -22°C° 0.4 mm 10 mps 670 mmHg 89%
    20:00 -20°C° 0.3 mm 10 mps 671 mmHg 89%
    21:00 -20°C° 0.3 mm 10 mps 671 mmHg 89%
    22:00 -20°C° 0.3 mm 10 mps 671 mmHg 89%
    23:00 -20°C° 0.3 mm 10 mps 672 mmHg 88%

    15 December, Friday

    Time Temperature Precipitation Wind Pressure Humidity
    00:00 -19°C° 0.3 mm 11 mps 672 mmHg 87%
    01:00 -19°C° 0.3 mm 11 mps 673 mmHg 87%
    02:00 -19°C° 0.3 mm 11 mps 673 mmHg 86%
    03:00 -19°C° 0.3 mm 11 mps 674 mmHg 86%
    04:00 -19°C° 0.3 mm 11 mps 675 mmHg 86%
    05:00 -19°C° 0.3 mm 11 mps 676 mmHg 87%
    06:00 -21°C° 0.3 mm 11 mps 676 mmHg 87%
    07:00 -21°C° 0.3 mm 11 mps 677 mmHg 87%
    08:00 -22°C° 0.2 mm 10 mps 678 mmHg 87%
    09:00 -22°C° 0.2 mm 10 mps 679 mmHg 87%
    10:00 -23°C° 0.2 mm 10 mps 679 mmHg 88%
    11:00 -22°C° 0.1 mm 9 mps 680 mmHg 88%
    12:00 -24°C° 0.1 mm 9 mps 680 mmHg 89%
    13:00 -23°C° 0.1 mm 8 mps 681 mmHg 89%
    14:00 -24°C° 0.1 mm 8 mps 682 mmHg 90%
    15:00 -25°C° 0.1 mm 7 mps 682 mmHg 90%
    16:00 -26°C° 0.1 mm 6 mps 683 mmHg 91%
    17:00 -27°C° 0 mm 6 mps 683 mmHg 92%
    18:00 -29°C° 0 mm 6 mps 684 mmHg 93%
    19:00 -29°C° 0 mm 5 mps 684 mmHg 94%
    20:00 -31°C° 0 mm 5 mps 685 mmHg 95%
    21:00 -31°C° 0 mm 4 mps 685 mmHg 96%
    22:00 -33°C° 0 mm 4 mps 685 mmHg 97%
    23:00 -33°C° 0 mm 3 mps 685 mmHg 97%

    16 December, Saturday

    Time Temperature Precipitation Wind Pressure Humidity
    00:00 -34°C° 0 mm 3 mps 685 mmHg 98%
    01:00 -34°C° 0 mm 2 mps 686 mmHg 98%
    02:00 -34°C° 0 mm 2 mps 686 mmHg 98%
    03:00 -35°C° 0 mm 2 mps 686 mmHg 99%
    04:00 -35°C° 0 mm 2 mps 686 mmHg 99%
    05:00 -36°C° 0 mm 2 mps 686 mmHg 99%
    06:00 -36°C° 0 mm 2 mps 686 mmHg 99%
    07:00 -36°C° 0 mm 2 mps 686 mmHg 99%
    08:00 -35°C° 0 mm 2 mps 687 mmHg 98%
    09:00 -31°C° 0 mm 1 mps 687 mmHg 98%
    10:00 -29°C° 0 mm 1 mps 687 mmHg 97%
    11:00 -28°C° 0 mm 1 mps 688 mmHg 96%
    12:00 -27°C° 0 mm 1 mps 688 mmHg 94%
    13:00 -25°C° 0 mm 1 mps 688 mmHg 93%
    14:00 -27°C° 0 mm 1 mps 688 mmHg 95%
    15:00 -28°C° 0 mm 1 mps 687 mmHg 96%
    16:00 -30°C° 0 mm 1 mps 687 mmHg 98%
    17:00 -30°C° 0 mm 1 mps 687 mmHg 98%
    18:00 -31°C° 0 mm 1 mps 688 mmHg 98%
    19:00 -32°C° 0 mm 1 mps 688 mmHg 98%
    20:00 -32°C° 0 mm 1 mps 688 mmHg 98%
    21:00 -32°C° 0 mm 1 mps 688 mmHg 99%
    22:00 -32°C° 0 mm 1 mps 688 mmHg 99%
    23:00 -32°C° 0 mm 1 mps 688 mmHg 99%

    17 December, Sunday

    Time Temperature Precipitation Wind Pressure Humidity
    00:00 -35°C° 0 mm 2 mps 689 mmHg 99%
    01:00 -35°C° 0 mm 2 mps 689 mmHg 99%
    02:00 -36°C° 0 mm 2 mps 689 mmHg 99%
    03:00 -33°C° 0 mm 1 mps 689 mmHg 99%
    04:00 -33°C° 0 mm 1 mps 689 mmHg 99%
    05:00 -33°C° 0 mm 1 mps 689 mmHg 99%
    06:00 -33°C° 0 mm 1 mps 689 mmHg 99%
    07:00 -33°C° 0 mm 1 mps 689 mmHg 99%
    08:00 -31°C° 0 mm 1 mps 690 mmHg 98%
    09:00 -30°C° 0 mm 1 mps 690 mmHg 97%
    10:00 -28°C° 0 mm 1 mps 690 mmHg 97%
    11:00 -27°C° 0 mm 1 mps 690 mmHg 95%
    12:00 -25°C° 0 mm 1 mps 690 mmHg 94%
    13:00 -24°C° 0 mm 1 mps 690 mmHg 93%
    14:00 -25°C° 0 mm 1 mps 689 mmHg 95%
    15:00 -28°C° 0 mm 1 mps 689 mmHg 97%
    16:00 -30°C° 0 mm 1 mps 688 mmHg 99%
    17:00 -30°C° 0 mm 1 mps 688 mmHg 99%
    18:00 -30°C° 0 mm 1 mps 688 mmHg 98%
    19:00 -31°C° 0 mm 1 mps 688 mmHg 98%
    20:00 -31°C° 0 mm 1 mps 688 mmHg 98%
    21:00 -31°C° 0 mm 1 mps 688 mmHg 98%
    22:00 -31°C° 0 mm 1 mps 688 mmHg 98%
    23:00 -31°C° 0 mm 1 mps 687 mmHg 98%
    Show more